{"data":{"norad_id":54259,"intl_designator":"2022-157A","name":"EUTELSAT 10B","alt_names":[],"object_type":"PAYLOAD","status":"ACTIVE","operator":null,"country":"EUTE","launch_date":"2022-11-23","launch_site_code":"AFETR","launch_vehicle":null,"mission":null,"orbit_class":"UNKNOWN","rcs_meters":null,"size_class":null,"mass_kg":null,"dimensions":null,"purposes":["comms"],"wikipedia_slug":null,"has_3d_model":false,"image_url":null,"decayed_at":null,"tle_current":{"epoch":"2026-05-25T03:47:24.495360Z","epoch_age_seconds":64431,"freshness":"FRESH","line1":"1 54259U 22157A   26145.15792240  .00000065  00000+0  00000+0 0  9999","line2":"2 54259   0.0607 102.3209 0001273   9.6084 197.6476  1.00266953 12798","mean_motion":1.00266953,"eccentricity":0.0001273,"inclination_deg":0.0607,"raan_deg":102.3209,"arg_perigee_deg":9.6084,"mean_anomaly_deg":197.6476,"bstar":0,"rev_number":1279,"period_min":1436.1661114804,"perigee_km":35782.581857772,"apogee_km":35793.317343421,"semimajor_km":42166.086600597,"source":"CELESTRAK","updated_at":"2026-05-25T13:38:14.136625Z"}}}